Time,TemperatureF,DewpointF,PressureIn,WindDirection,WindDirectionDegrees,WindSpeedMPH,WindSpeedGustMPH,Humidity,HourlyPrecipIn,Conditions,Clouds,dailyrainin,SoftwareType,DateUTC
2013-06-01 00:10:00,68.4,65.0,30.00,North,350,0.0,1.0,90,0.00,,,0.00,weatherlink.com 1.10,2013-06-01 04:10:00,
2013-06-01 00:25:00,69.5,66.0,29.99,West,261,0.0,1.0,87,0.00,,,0.00,weatherlink.com 1.10,2013-06-01 04:25:00,
2013-06-01 00:40:00,69.4,65.0,29.99,West,262,0.0,0.0,87,0.00,,,0.00,weatherlink.com 1.10,2013-06-01 04:40:00,
2013-06-01 00:55:00,69.0,65.0,29.98,West,262,0.0,0.0,87,0.00,,,0.00,weatherlink.com 1.10,2013-06-01 04:55:00,
2013-06-01 01:10:00,68.4,65.0,29.98,West,262,0.0,0.0,88,0.00,,,0.00,weatherlink.com 1.10,2013-06-01 05:10:00,
2013-06-01 01:25:00,68.2,65.0,29.99,West,262,0.0,0.0,88,0.00,,,0.00,weatherlink.com 1.10,2013-06-01 05:25:00,
2013-06-01 01:40:00,68.1,65.0,29.99,West,262,0.0,0.0,88,0.00,,,0.00,weatherlink.com 1.10,2013-06-01 05:40:00,
2013-06-01 01:55:00,67.8,65.0,29.99,West,262,0.0,0.0,89,0.00,,,0.00,weatherlink.com 1.10,2013-06-01 05:55:00,
2013-06-01 02:10:00,67.5,64.0,29.99,West,262,0.0,0.0,89,0.00,,,0.00,weatherlink.com 1.10,2013-06-01 06:10:00,
2013-06-01 02:25:00,67.1,64.0,29.99,West,262,0.0,0.0,90,0.00,,,0.00,weatherlink.com 1.10,2013-06-01 06:25:00,
2013-06-01 02:40:00,66.7,64.0,29.99,West,262,0.0,0.0,91,0.00,,,0.00,weatherlink.com 1.10,2013-06-01 06:40:00,
2013-06-01 02:55:00,66.3,64.0,29.99,West,262,0.0,0.0,91,0.00,,,0.00,weatherlink.com 1.10,2013-06-01 06:55:00,
2013-06-01 03:10:00,66.0,64.0,29.99,West,261,0.0,0.0,92,0.00,,,0.00,weatherlink.com 1.10,2013-06-01 07:10:00,
2013-06-01 03:25:00,66.0,64.0,30.00,West,261,0.0,0.0,93,0.00,,,0.00,weatherlink.com 1.10,2013-06-01 07:25:00,
2013-06-01 03:40:00,66.4,64.0,30.00,SSE,156,0.0,2.0,93,0.00,,,0.00,weatherlink.com 1.10,2013-06-01 07:40:00,
2013-06-01 03:55:00,67.1,65.0,29.99,ESE,117,0.0,1.0,93,0.02,,,0.02,weatherlink.com 1.10,2013-06-01 07:55:00,
2013-06-01 04:10:00,66.8,65.0,29.99,WSW,240,0.0,1.0,95,0.02,,,0.02,weatherlink.com 1.10,2013-06-01 08:10:00,
2013-06-01 04:25:00,66.6,65.0,29.99,WSW,240,0.0,0.0,95,0.03,,,0.03,weatherlink.com 1.10,2013-06-01 08:25:00,
2013-06-01 04:40:00,66.4,65.0,29.99,WSW,240,0.0,0.0,96,0.03,,,0.03,weatherlink.com 1.10,2013-06-01 08:40:00,
2013-06-01 04:55:00,66.1,65.0,29.98,WSW,240,0.0,1.0,96,0.01,,,0.03,weatherlink.com 1.10,2013-06-01 08:55:00,
2013-06-01 05:10:00,66.1,65.0,29.98,SW,235,0.0,2.0,96,0.01,,,0.03,weatherlink.com 1.10,2013-06-01 09:10:00,
2013-06-01 05:25:00,66.0,65.0,29.98,WSW,238,0.0,2.0,96,0.00,,,0.03,weatherlink.com 1.10,2013-06-01 09:25:00,
2013-06-01 05:40:00,65.5,64.0,29.98,WSW,238,0.0,1.0,96,0.00,,,0.03,weatherlink.com 1.10,2013-06-01 09:40:00,
2013-06-01 05:55:00,65.3,64.0,29.98,WSW,238,0.0,1.0,96,0.00,,,0.03,weatherlink.com 1.10,2013-06-01 09:55:00,
2013-06-01 06:10:00,65.4,65.0,29.98,WSW,238,0.0,1.0,97,0.00,,,0.03,weatherlink.com 1.10,2013-06-01 10:10:00,
2013-06-01 06:25:00,65.5,65.0,29.99,WSW,238,0.0,0.0,97,0.00,,,0.03,weatherlink.com 1.10,2013-06-01 10:25:00,
2013-06-01 06:40:00,65.7,65.0,29.99,WSW,238,0.0,1.0,97,0.00,,,0.03,weatherlink.com 1.10,2013-06-01 10:40:00,
2013-06-01 06:55:00,65.8,65.0,30.00,WSW,238,0.0,0.0,97,0.00,,,0.03,weatherlink.com 1.10,2013-06-01 10:55:00,
2013-06-01 07:10:00,66.2,65.0,30.00,WSW,238,0.0,0.0,97,0.00,,,0.03,weatherlink.com 1.10,2013-06-01 11:10:00,
2013-06-01 07:25:00,66.5,66.0,30.00,WSW,238,0.0,0.0,97,0.00,,,0.03,weatherlink.com 1.10,2013-06-01 11:25:00,
2013-06-01 07:40:00,66.7,66.0,30.00,WSW,238,0.0,0.0,97,0.00,,,0.03,weatherlink.com 1.10,2013-06-01 11:40:00,
2013-06-01 07:55:00,66.9,66.0,30.00,WSW,238,0.0,1.0,97,0.00,,,0.03,weatherlink.com 1.10,2013-06-01 11:55:00,
2013-06-01 08:10:00,66.9,66.0,30.00,WSW,238,0.0,1.0,96,0.00,,,0.03,weatherlink.com 1.10,2013-06-01 12:10:00,
2013-06-01 08:25:00,67.9,67.0,29.99,WSW,238,1.0,1.0,96,0.00,,,0.03,weatherlink.com 1.10,2013-06-01 12:25:00,
2013-06-01 08:40:00,70.2,69.0,29.99,WSW,238,0.0,1.0,95,0.00,,,0.03,weatherlink.com 1.10,2013-06-01 12:40:00,
2013-06-01 08:56:00,72.2,68.0,29.99,NNE,27,1.0,1.0,86,0.00,,,0.03,weatherlink.com 1.10,2013-06-01 12:56:00,
2013-06-01 09:11:00,74.0,69.0,29.99,NNW,332,0.0,2.0,83,0.00,,,0.03,weatherlink.com 1.10,2013-06-01 13:11:00,
2013-06-01 09:26:00,76.0,69.0,29.98,West,271,0.0,2.0,80,0.00,,,0.03,weatherlink.com 1.10,2013-06-01 13:26:00,
2013-06-01 09:41:00,79.2,69.0,29.98,West,280,0.0,2.0,70,0.00,,,0.03,weatherlink.com 1.10,2013-06-01 13:41:00,
2013-06-01 09:56:00,80.4,69.0,29.97,SW,214,0.0,3.0,69,0.00,,,0.03,weatherlink.com 1.10,2013-06-01 13:56:00,
2013-06-01 10:11:00,81.1,69.0,29.97,WNW,290,2.0,3.0,66,0.00,,,0.03,weatherlink.com 1.10,2013-06-01 14:11:00,
2013-06-01 10:26:00,81.7,67.0,29.97,NW,316,2.0,4.0,62,0.00,,,0.03,weatherlink.com 1.10,2013-06-01 14:26:00,
2013-06-01 10:40:00,82.3,66.0,29.96,West,278,2.0,5.0,59,0.00,,,0.03,weatherlink.com 1.10,2013-06-01 14:40:00,
2013-06-01 10:56:00,82.8,66.0,29.96,SW,226,1.0,8.0,58,0.00,,,0.03,weatherlink.com 1.10,2013-06-01 14:56:00,
2013-06-01 11:11:00,83.9,67.0,29.95,ESE,108,4.0,5.0,58,0.00,,,0.03,weatherlink.com 1.10,2013-06-01 15:11:00,
2013-06-01 11:26:00,84.2,66.0,29.96,WNW,294,1.0,9.0,55,0.00,,,0.03,weatherlink.com 1.10,2013-06-01 15:26:00,
2013-06-01 11:41:00,85.5,66.0,29.96,NNW,333,1.0,10.0,53,0.00,,,0.03,weatherlink.com 1.10,2013-06-01 15:41:00,
2013-06-01 11:56:00,85.6,66.0,29.96,WNW,284,2.0,7.0,53,0.00,,,0.03,weatherlink.com 1.10,2013-06-01 15:56:00,
2013-06-01 12:11:00,85.3,67.0,29.95,West,271,0.0,7.0,55,0.00,,,0.03,weatherlink.com 1.10,2013-06-01 16:11:00,
2013-06-01 12:26:00,85.1,66.0,29.95,SE,137,3.0,8.0,53,0.00,,,0.03,weatherlink.com 1.10,2013-06-01 16:26:00,
2013-06-01 12:41:00,85.2,67.0,29.95,SSE,165,2.0,6.0,54,0.00,,,0.03,weatherlink.com 1.10,2013-06-01 16:41:00,
2013-06-01 12:56:00,84.3,67.0,29.94,NW,325,1.0,4.0,57,0.00,,,0.03,weatherlink.com 1.10,2013-06-01 16:56:00,
2013-06-01 13:11:00,83.3,67.0,29.95,SSW,210,2.0,4.0,58,0.00,,,0.03,weatherlink.com 1.10,2013-06-01 17:11:00,
2013-06-01 13:26:00,83.4,68.0,29.94,SSW,198,0.0,4.0,60,0.00,,,0.03,weatherlink.com 1.10,2013-06-01 17:26:00,
2013-06-01 13:41:00,84.2,67.0,29.94,NW,307,1.0,3.0,57,0.00,,,0.03,weatherlink.com 1.10,2013-06-01 17:41:00,
2013-06-01 13:56:00,83.8,68.0,29.93,SE,135,2.0,5.0,60,0.00,,,0.03,weatherlink.com 1.10,2013-06-01 17:56:00,
2013-06-01 14:11:00,83.8,67.0,29.93,NW,314,2.0,9.0,57,0.00,,,0.03,weatherlink.com 1.10,2013-06-01 18:11:00,
2013-06-01 14:26:00,83.0,67.0,29.92,ENE,60,0.0,6.0,58,0.00,,,0.03,weatherlink.com 1.10,2013-06-01 18:26:00,
2013-06-01 14:41:00,83.7,67.0,29.91,West,275,1.0,8.0,58,0.00,,,0.03,weatherlink.com 1.10,2013-06-01 18:41:00,
2013-06-01 14:56:00,84.3,67.0,29.91,NNW,336,4.0,6.0,57,0.00,,,0.03,weatherlink.com 1.10,2013-06-01 18:56:00,
2013-06-01 15:11:00,85.3,68.0,29.91,NW,321,1.0,6.0,56,0.00,,,0.03,weatherlink.com 1.10,2013-06-01 19:11:00,
2013-06-01 15:27:00,84.8,69.0,29.90,WNW,290,1.0,2.0,59,0.00,,,0.03,weatherlink.com 1.10,2013-06-01 19:27:00,
2013-06-01 15:42:00,84.7,69.0,29.90,SE,142,2.0,3.0,59,0.00,,,0.03,weatherlink.com 1.10,2013-06-01 19:42:00,
2013-06-01 15:57:00,84.4,68.0,29.89,SW,224,1.0,5.0,58,0.00,,,0.03,weatherlink.com 1.10,2013-06-01 19:57:00,
2013-06-01 16:12:00,84.6,68.0,29.89,SSE,164,0.0,6.0,58,0.00,,,0.03,weatherlink.com 1.10,2013-06-01 20:12:00,
2013-06-01 16:27:00,85.3,68.0,29.88,SW,233,2.0,7.0,56,0.00,,,0.03,weatherlink.com 1.10,2013-06-01 20:27:00,
2013-06-01 16:42:00,85.1,68.0,29.88,NW,316,2.0,3.0,57,0.00,,,0.03,weatherlink.com 1.10,2013-06-01 20:42:00,
2013-06-01 16:57:00,85.4,67.0,29.88,WNW,283,0.0,6.0,55,0.00,,,0.03,weatherlink.com 1.10,2013-06-01 20:57:00,
2013-06-01 17:12:00,85.3,67.0,29.88,WNW,285,0.0,4.0,55,0.00,,,0.03,weatherlink.com 1.10,2013-06-01 21:12:00,
2013-06-01 17:27:00,85.7,68.0,29.87,SE,142,2.0,5.0,55,0.00,,,0.03,weatherlink.com 1.10,2013-06-01 21:27:00,
2013-06-01 17:42:00,85.4,67.0,29.87,SW,217,1.0,3.0,55,0.00,,,0.03,weatherlink.com 1.10,2013-06-01 21:42:00,
2013-06-01 17:57:00,85.1,71.0,29.86,SW,217,2.0,2.0,62,0.00,,,0.03,weatherlink.com 1.10,2013-06-01 21:57:00,
2013-06-01 18:12:00,84.3,69.0,29.86,SW,225,1.0,2.0,61,0.00,,,0.03,weatherlink.com 1.10,2013-06-01 22:12:00,
2013-06-01 18:27:00,83.9,69.0,29.86,WSW,237,0.0,3.0,61,0.00,,,0.03,weatherlink.com 1.10,2013-06-01 22:27:00,
2013-06-01 18:42:00,83.4,70.0,29.86,SW,225,1.0,2.0,65,0.00,,,0.03,weatherlink.com 1.10,2013-06-01 22:42:00,
2013-06-01 18:57:00,82.6,70.0,29.86,WSW,240,0.0,2.0,66,0.00,,,0.03,weatherlink.com 1.10,2013-06-01 22:57:00,
2013-06-01 19:12:00,81.5,71.0,29.85,WSW,240,0.0,0.0,70,0.00,,,0.03,weatherlink.com 1.10,2013-06-01 23:12:00,
2013-06-01 19:27:00,79.9,70.0,29.85,WSW,240,0.0,1.0,71,0.00,,,0.03,weatherlink.com 1.10,2013-06-01 23:27:00,
2013-06-01 19:42:00,78.8,69.0,29.84,WSW,242,0.0,0.0,73,0.00,,,0.03,weatherlink.com 1.10,2013-06-01 23:42:00,
2013-06-01 19:57:00,77.8,69.0,29.84,WSW,242,0.0,1.0,75,0.00,,,0.03,weatherlink.com 1.10,2013-06-01 23:57:00,
2013-06-01 20:12:00,77.0,69.0,29.84,WSW,243,0.0,0.0,76,0.00,,,0.03,weatherlink.com 1.10,2013-06-02 00:12:00,
2013-06-01 20:27:00,76.2,69.0,29.84,WSW,242,0.0,0.0,77,0.00,,,0.03,weatherlink.com 1.10,2013-06-02 00:27:00,
2013-06-01 20:42:00,75.5,69.0,29.84,WSW,242,0.0,0.0,80,0.00,,,0.03,weatherlink.com 1.10,2013-06-02 00:42:00,
2013-06-01 20:57:00,74.4,68.0,29.84,WSW,242,0.0,0.0,81,0.00,,,0.03,weatherlink.com 1.10,2013-06-02 00:57:00,
2013-06-01 21:12:00,73.5,68.0,29.84,WSW,242,0.0,0.0,83,0.00,,,0.03,weatherlink.com 1.10,2013-06-02 01:12:00,
2013-06-01 21:27:00,72.7,68.0,29.84,WSW,242,0.0,0.0,84,0.00,,,0.03,weatherlink.com 1.10,2013-06-02 01:27:00,
2013-06-01 21:42:00,71.8,68.0,29.84,WSW,242,0.0,1.0,86,0.00,,,0.03,weatherlink.com 1.10,2013-06-02 01:42:00,
2013-06-01 21:57:00,71.1,67.0,29.84,WSW,242,0.0,0.0,87,0.00,,,0.03,weatherlink.com 1.10,2013-06-02 01:57:00,
2013-06-01 22:12:00,70.5,67.0,29.84,WSW,242,0.0,0.0,89,0.00,,,0.03,weatherlink.com 1.10,2013-06-02 02:12:00,
2013-06-01 22:27:00,69.9,67.0,29.84,WSW,241,0.0,0.0,90,0.00,,,0.03,weatherlink.com 1.10,2013-06-02 02:27:00,
2013-06-01 22:42:00,69.6,67.0,29.84,WSW,242,0.0,0.0,91,0.00,,,0.03,weatherlink.com 1.10,2013-06-02 02:42:00,
2013-06-01 22:57:00,69.2,67.0,29.84,WSW,242,0.0,0.0,91,0.00,,,0.03,weatherlink.com 1.10,2013-06-02 02:57:00,
2013-06-01 23:12:00,68.9,67.0,29.83,WSW,242,0.0,1.0,92,0.00,,,0.03,weatherlink.com 1.10,2013-06-02 03:12:00,
2013-06-01 23:27:00,68.9,67.0,29.83,WSW,241,0.0,1.0,92,0.00,,,0.03,weatherlink.com 1.10,2013-06-02 03:27:00,
2013-06-01 23:42:00,69.1,67.0,29.82,WSW,242,0.0,1.0,93,0.00,,,0.03,weatherlink.com 1.10,2013-06-02 03:42:00,
2013-06-01 23:57:00,69.1,67.0,29.82,WSW,241,0.0,0.0,93,0.00,,,0.00,weatherlink.com 1.10,2013-06-02 03:57:00,